Free Severe Weather Alerts by Email and Text Message   

 
Follow iAlert.com on twitter @ialertcom
Search For Active Alerts in Your Area  
  Hi Guest:  [ Sign-up / Services ] [ Login ]

Current weather by "City, St" or "zip code"  

 

Advertise Here

Hazardous Weather Conditions

No active alerts for PHOENIX, ARIZONA

Current Conditions: PHOENIX, ARIZONA

Fair


78.0 F

Last Updated on Aug 19 2017, 3:53 am MST
Humidity: 21%
Wind Speed: N 0.0 mph
Barometer 29.87 in
Dewpoint: 35.1 F
Visibility: 10.00 mi
Precip: --
Heat Index: NA
Wind Chill: NA
Current conditions at:

Phoenix, Phoenix-Deer Valley Municipal Airport, AZ (KDVT)

Lat: 33.69 Lon: -112.06

Local Radar Image active severe weather and emergency alerts image image weather storm and storm spotter reports image weather observation monitoring service image
Local
Radar
Active
Alerts
Storm Reports Weather
Monitoring

Weather Alert Notification Services


ialert severe weather and emergency alerts by text message and email ialert daily weather forecast by email and text message service ialert real-time weather-observation monitoring and alert notification service ialert storm report monitoring alert notification

Observation History for PHOENIX, ARIZONA


Time Wind
(mph)
Vis
(mi)
Weather Precip (in) Temperature (F) Relative
Humidity
Wind
Chill
(°F)
Heat
Index
(°F)
Pressure
Air Dwpt altimeter
(in)
sea level
(mb)
3:53 am MST N 0.0 10.00 Fair -- 78.0 35.1 21% NA NA 29.87 1008.7
2:53 am MST N 4.6 10.00 Fair -- 81.0 35.1 19% NA 79 29.86 1008.4
1:53 am MST 4.6 10.00 Fair -- 81.0 35.1 19% NA 79 29.87 1008.5
12:53 am MST N 0.0 10.00 Fair -- 84.0 34.0 17% NA 81 29.87 1008.8
11:53 pm MST NE 6.9 10.00 Fair -- 86.0 33.1 15% NA 83 29.88 1008.9
10:53 pm MST NE 8.1 10.00 Fair -- 87.0 34.0 15% NA 83 29.88 1008.9
9:53 pm MST N 0.0 10.00 Fair -- 86.0 36.0 17% NA 83 29.87 1008.9
8:53 pm MST N 0.0 10.00 Fair -- 92.0 35.1 13% NA 88 29.86 1008.5
7:53 pm MST SW 3.5 10.00 Fair -- 95.0 32.0 11% NA 90 29.85 1008.0
6:53 pm MST W 6.9 10.00 Fair -- 99.0 30.0 9% NA 94 29.84 1007.7
5:53 pm MST SW 11.5 10.00 Fair -- 101.0 28.0 8% NA 95 29.84 1007.8
4:53 pm MST S 8.1 10.00 Fair -- 102.0 30.0 8% NA 96 29.86 1008.4
3:53 pm MST 6.9 10.00 Fair -- 103.0 34.0 9% NA 97 29.88 1008.8
2:53 pm MST W 10.4 G 16.1 10.00 Fair -- 102.0 34.0 9% NA 96 29.90 1009.7
1:53 pm MST N 0.0 10.00 Fair -- 100.0 32.0 9% NA 95 29.92 1010.3
12:53 pm MST SW 6.9 10.00 Fair -- 100.0 33.1 10% NA 95 29.93 1010.8
11:53 am MST S 5.8 10.00 Fair -- 98.0 30.9 9% NA 93 29.96 1011.6
10:53 am MST S 8.1 10.00 Fair -- 96.0 34.0 11% NA 91 29.97 1012.1
9:53 am MST S 9.2 10.00 Fair -- 92.0 34.0 13% NA 88 29.98 1012.4
8:53 am MST N 0.0 10.00 Fair -- 88.0 33.1 14% NA 84 29.98 1012.4
7:53 am MST N 0.0 10.00 Fair -- 84.0 34.0 17% NA 81 29.98 1012.4
6:53 am MST N 0.0 10.00 Fair -- 76.0 34.0 22% NA NA 29.96 1011.9
5:53 am MST N 0.0 10.00 Fair -- 74.0 30.9 20% NA NA 29.94 1011.2
4:53 am MST SE 3.5 10.00 Fair -- 74.0 32.0 21% NA NA 29.92 1010.6

Regional Weather Observation:


Glendale, Glendale Municipal Airport, AZ (KGEU)

A Few Clouds
97.0 F

Luke Air Force Base / Phoenix, AZ (KLUF)

Fair
78.0 F

Phoenix, Phoenix Sky Harbor International Airport, AZ (KPHX)

A Few Clouds
83.0 F

Goodyear Municipal, AZ (KGYR)

A Few Clouds
91.0 F

Buckeye Municipal Airport, AZ (KBXK)

Fair
79.0 F

Scottsdale Airport, AZ (KSDL)

Fair
80.0 F

Advertise Here


Advertise Here